Вернуться в каталог

STARLINK-2547

АктивенСвязьVLEO
NORAD 48286·PAYLOAD·🇺🇸 United States

Запущен Apr 29, 2021 с Cape Canaveral Space Force Station

Loading…

Ближайшие Пролёты (ближайшие 24 часа)

TLE

СвежийSource: CelesTrak SupGP

Эпоха: Sep 15, 2026, 02:06 UTC

1 48286C 21036L   26258.08798611  .00007894  00000+0  25357-3 0  2583
2 48286  53.1567 274.0306 0001369  99.9592 314.3357 15.31733522    10

Отслеживайте STARLINK-2547 в реальном времени с AllMySat

Download on the App Store